User: anonymous   Login
Location: Unspecified
(0.0000°N, 0.0000°E)
Time: 19:01:21
(UTC+00:00)
Language:

STARLINK-31027 - Orbit

View from above orbital plane
View from above orbital plane
View from above satellite
View from above satellite

Ground track
Ground track

The orbit is defined by the following mean orbital elements,

1 58720U          26145.46976428 +.00000000 +00000-0 +66495-3 0 00002
2 58720  53.1423 213.6575 0007257 274.4238  85.5950 15.67345867    06
Epoch (UTC): 25 May 2026 11:16:27
Eccentricity: 0.0007257
inclination: 53.1423°
perigee height: 362 km
apogee height: 371 km
right ascension of ascending node: 213.6575°
argument of perigee: 274.4238°
revolutions per day: 15.67345867
mean anomaly at epoch: 85.5950°

The dashed part of the orbit path shows where the satellite is in the earth's shadow,  

DLR